Showing default

IRIDIUM 155, 43573

Orbit data source: Space-Track

IRIDIUM 155, 43573 is a payload satellite owned by Iridium (US) in LEO that was launched on Wed, 25 Jul 2018 UTC via an FALCON 9 launch vehicle from the Air Force Western Test Range (AFWTR). Payload-class satellites include a variety of spacecraft equipped with specific instruments for various scientific and technological missions. These include communications satellites like Starlink; space stations such as the ISS; scientific satellites like the Hubble; Earth observation satellites from companies like Planet Labs, Umbra, and HawkEye 360; GPS; miniature CubeSats for education and research; and military/defense satellites.

Loading next visibility...
Identifier
43573, 2018-061E
Orbit
LEO
Country
Flag of USUS
Related business
Manufacturer
NGIS SSG Gilbert
Mission
Operational Commercial Communications
Bus & Motor
ELITEBUS, Unknown motor
Mass
860 kg wet, 700 kg dry
Launch date (UTC)
2018-07-25 (8 years ago)
Launch vehicle
FALCON 9
Launch site
Air Force Western Test Range (AFWTR)
Object type
Payload
Rocket body
Debris
Shape & HBR
Trap Box + 2 Pan, 4.8 m
Radar Cross Section
10.154 m², Large (>1 m²)

Expand to show TLE details & history
Last TLE update: 12 hours ago

TLE from 12 hours ago
0 IRIDIUM 155
1 43573U 18061E   26123.87785312  .00000069  00000-0  17494-4 0  9997
2 43573  86.3948  75.1978 0002387  86.3469 273.7999 14.34217934407000
Epoch: 2026-05-03T21:04Z
TLE epoch observation values (Epoch: 2026-05-03T21:04:06.509Z)
Latitude
-0.00011°
Longitude
-102.60442°
Altitude
780.605 km
Speed
7.464 km/s
True Right ascension
05h 00m 47s
True Declination
0° 00' 00"
Sunlit
Object was in daylight at epoch
Visualization orbit readout
Latitude
Unknown
Longitude
Unknown
Altitude
Unknown
Speed
Unknown
Apparent Right ascension
Unknown
Apparent Declination
Unknown
Sunlit
N/A
Visualization observer readout
Local Sidereal Time
16:51:31
Azimuth
Unknown
Elevation
Unknown
Doppler factor
Unknown
Orbital elements
Apogee altitude
776.338 km
Perigee altitude
772.924 km
Semi-major axis
7,152.768 km
Eccentricity
0.00024
Inclination
86.3948°
RAAN
75.1978°
Arg. of periapsis
86.3469°
True anomaly
273.77261°
Mean anomaly
273.7999°
Eccentric anomaly
273.78625°
Mean motion
3.58783 °/min
Orbital period
100.34 mins
BSTAR
0.000017494
Loading maneuver chart data...
Computing Atmospheric mass density...
Loading historical data...
Loading historical data...
Loading historical data...
Loading historical data...
Loading historical data...
Loading historical data...
Loading historical data...

Documentation

Showing up to 5 results
|